BMCB-13 Weather Reports


time (UTC)temp
C
wind
direction
speed
KPH
gust
KPH
rain 1hr
cm
rain 24hr
cm
rain mn
cm
humidity
%
barometer
mb
20260506013045 8 360 6.4 14.5 0.23 0.99 0.56 10 1006.2
20260506012044 8 316 6.4 17.7 0.23 0.94 0.51 10 1006.3
20260506011044 8 1 6.4 14.5 0.23 0.89 0.48 10 1006.3
20260506005044 8 2 6.4 14.5 0.18 0.84 0.43 10 1006.4
20260506004045 8 5 6.4 16.1 0.18 0.81 0.41 10 1006.5
20260506003044 8 4 8.0 17.7 0.18 0.79 0.38 10 1006.6
20260506002046 8 278 6.4 12.9 0.15 0.76 0.33 10 1006.6
20260506001045 8 3 6.4 14.5 0.15 0.71 0.30 10 1006.8
20260505235046 8 8 6.4 14.5 0.13 0.66 0.23 10 1006.9
20260505234045 8 8 6.4 16.1 0.15 0.66 0.23 10 1006.9
20260505233046 8 86 6.4 17.7 0.15 0.64 0.23 10 1006.9
20260505232047 9 268 6.4 16.1 0.15 0.61 0.20 10 1007.0
20260505231046 9 7 4.8 12.9 0.15 0.61 0.18 10 1007.0
20260505230048 9 6 6.4 14.5 0.15 0.58 0.15 10 1007.1
20260505225049 9 212 6.4 14.5 0.15 0.56 0.15 10 1007.1
20260505224047 9 5 4.8 12.9 0.15 0.53 0.13 10 1007.1
20260505223048 9 13 6.4 16.1 0.15 0.51 0.10 10 1007.1
20260505222047 9 20 4.8 9.7 0.15 0.51 0.08 10 1007.2
20260505221047 9 28 4.8 11.3 0.13 0.46 0.05 10 1007.2
20260505214050 9 39 8.0 17.7 0.13 0.41 0.41 99 1007.3
20260505213051 9 34 8.0 19.3 0.13 0.38 0.38 99 1007.4
20260505212051 9 31 8.0 16.1 0.15 0.38 0.38 99 1007.4
20260505211050 9 25 9.7 20.9 0.15 0.36 0.36 99 1007.5
20260505210047 9 278 9.7 19.3 0.15 0.33 0.33 99 1007.5
20260505205048 10 27 4.8 11.3 0.15 0.33 0.33 99 1007.5
20260505204051 10 25 6.4 14.5 0.15 0.30 0.30 10 1007.5
20260505203047 10 28 4.8 9.7 0.15 0.28 0.28 99 1007.5
20260505202050 10 27 6.4 14.5 0.15 0.25 0.25 99 1007.5
20260505200049 10 78 8.0 16.1 0.15 0.23 0.23 99 1007.4
20260505195046 10 28 8.0 16.1 0.15 0.20 0.20 99 1007.4
20260505193051 10 26 8.0 17.7 0.13 0.15 0.15 99 1007.3
20260505192048 10 35 6.4 12.9 0.13 0.15 0.15 99 1007.3
20260505191048 10 30 8.0 16.1 0.13 0.13 0.13 99 1007.2
20260505190050 10 29 6.4 14.5 0.10 0.10 0.10 98 1007.2
20260505185048 10 32 6.4 12.9 0.08 0.08 0.08 98 1007.2
20260505183047 10 30 6.4 12.9 0.05 0.05 0.05 98 1007.1
20260505182048 10 26 6.4 14.5 0.05 0.05 0.05 97 1007.2
20260505181050 10 28 6.4 16.1 0.03 0.03 0.03 97 1007.2
20260505180048 10 21 8.0 19.3 0.00 0.00 0.00 96 1007.2
20260505175047 10 20 6.4 14.5 0.00 0.00 0.00 96 1007.2
20260505174047 10 33 8.0 16.1 0.00 0.00 0.00 95 1007.3
20260505172045 10 22 6.4 17.7 0.00 0.00 0.00 95 1007.3
20260505171048 10 20 6.4 11.3 0.00 0.00 0.00 95 1007.3
20260505165048 10 17 4.8 14.5 0.00 0.00 0.00 95 1007.4
20260505164047 10 8 6.4 12.9 0.00 0.00 0.00 96 1007.4
20260505162045 10 9 6.4 12.9 0.00 0.03 0.00 96 1007.4
20260505161047 10 23 8.0 16.1 0.00 0.05 0.00 95 1007.5
20260505153045 11 9 8.0 17.7 0.00 0.38 0.00 94 1007.5
20260505151043 11 17 4.8 14.5 0.00 0.51 0.00 94 1007.6
20260505124046 11 17 6.4 12.9 0.00 1.17 0.00 94 1008.2
20260505123046 11 18 8.0 16.1 0.00 1.17 0.00 94 1008.3
20260505121045 12 11 8.0 17.7 0.00 1.17 0.00 94 1008.3
20260505120045 12 350 8.0 17.7 0.00 1.17 0.00 94 1008.2
20260505115044 12 72 6.4 14.5 0.00 1.17 0.00 94 1008.3
20260505114047 12 188 8.0 16.1 0.00 1.17 0.00 94 1008.3
20260505113045 12 20 8.0 17.7 0.00 1.17 0.00 95 1008.3
20260505112046 12 18 8.0 16.1 0.00 1.17 0.00 95 1008.3
20260505111048 12 20 9.7 17.7 0.00 1.17 0.00 95 1008.3
20260505101049 12 16 9.7 19.3 0.00 1.17 0.00 97 1008.5
20260505100044 12 14 8.0 19.3 0.00 1.17 0.00 97 1008.5
20260505095046 12 12 8.0 17.7 0.00 1.17 0.00 97 1008.5
20260505094048 12 16 8.0 17.7 0.00 1.17 0.00 96 1008.5
20260505093047 12 17 8.0 17.7 0.00 1.17 0.00 97 1008.6
20260505092045 12 12 8.0 19.3 0.00 1.17 0.00 96 1008.6
20260505091047 12 94 8.0 16.1 0.00 1.17 0.00 96 1008.6
20260505090045 13 305 8.0 14.5 0.00 1.17 0.00 95 1008.5
20260505085047 13 49 4.8 6.4 0.00 1.17 0.00 92 1008.5
20260505084046 14 42 4.8 8.0 0.00 1.17 0.00 89 1008.4
20260505083046 15 23 3.2 9.7 0.00 1.17 0.00 89 1008.4
20260505082048 15 17 3.2 9.7 0.00 1.17 0.00 91 1008.3
20260505080050 14 23 3.2 8.0 0.00 1.17 0.00 92 1008.4
20260505075042 14 5 3.2 8.0 0.00 1.17 0.00 92 1008.5
20260505074044 14 33 3.2 8.0 0.00 1.17 0.00 94 1008.5
20260505073043 13 15 3.2 8.0 0.00 1.17 0.00 94 1008.5
20260505072044 13 30 3.2 6.4 0.00 1.17 0.00 94 1008.5
20260505071045 13 22 3.2 6.4 0.00 1.17 0.00 97 1008.5
20260505065046 12 15 1.6 4.8 0.00 1.17 0.00 99 1008.6
20260505064044 12 20 3.2 4.8 0.00 1.17 0.00 99 1008.7
20260505063043 12 30 1.6 4.8 0.00 1.17 0.00 99 1008.8
20260505062044 12 16 3.2 4.8 0.00 1.17 0.00 99 1008.8
20260505061046 12 9 3.2 4.8 0.00 1.17 0.00 10 1008.9
20260505060044 12 36 3.2 4.8 0.00 1.17 0.00 10 1008.9
20260505055047 12 54 1.6 4.8 0.00 1.17 0.00 10 1008.9
20260505054045 12 71 1.6 3.2 0.00 1.17 0.00 10 1008.9
20260505053046 12 24 0.0 0.0 0.00 1.17 0.00 10 1008.8
20260505052044 12 87 1.6 3.2 0.00 1.17 0.00 99 1008.8
20260505051047 12 134 0.0 1.6 0.00 1.17 0.00 99 1008.8
20260505041043 11 135 0.0 0.0 0.00 1.17 0.00 99 1008.9
20260505040045 12 279 0.0 0.0 0.00 1.17 0.00 99 1008.9
20260505035046 12 193 0.0 0.0 0.00 1.17 0.00 99 1008.9
20260505034045 11 172 0.0 0.0 0.00 1.17 0.00 98 1009.0
20260505033048 11 160 1.6 3.2 0.00 1.17 0.00 98 1009.0
20260505032044 12 251 1.6 3.2 0.00 1.17 0.00 98 1009.1
20260505031044 12 262 0.0 3.2 0.00 1.17 0.00 98 1009.1
20260505030045 12 183 0.0 3.2 0.00 1.17 0.00 98 1009.2
20260505025046 12 52 0.0 1.6 0.00 1.17 0.00 98 1009.2
20260505024048 12 121 3.2 6.4 0.00 1.17 0.00 98 1009.3
20260505022046 12 105 1.6 3.2 0.00 1.17 0.00 98 1009.4
20260505021046 12 87 1.6 4.8 0.00 1.17 0.00 99 1009.4
20260505020047 12 70 1.6 3.2 0.00 1.17 0.00 98 1009.4
20260505015046 12 81 1.6 3.2 0.00 1.17 0.00 98 1009.4
20260505014046 12 317 0.0 1.6 0.00 1.17 0.00 97 1009.5